sat.trackr.live / text

‹ back to catalog

PELICAN-1

NORAD 58296 · 2023-174AS

PAYLOAD ACTIVE UNKNOWN

§ Identity

Operator
Country
US
Launch date
2023-11-11
Launch site
AFWTR
Launch vehicle
Mass (kg)
RCS (m²)

Purposes: earth_obs

External: N2YO · Heavens-Above · Gunter

§ Orbital elements

Epoch: 2026-09-19T01:16:44.097024Z

Period
91.87 min
Inclination
97.3986°
Eccentricity
0.0001699
Mean motion
15.67498050 rev/d
Perigee alt
364.9 km
Apogee alt
367.2 km
Semi-major
6,744.2 km
B*
4.1416e-5
RAAN
7.9905°
Arg perigee
53.1304°
Mean anomaly
307.0113°
Rev number
16,090

§ Raw data

PELICAN-11 58296U 23174AS  26262.05328816  .00004362  00000+0  41416-4 0  99922 58296  97.3986   7.9905 0001699  53.1304 307.0113 15.67498050160901

JSON: /api/v1/satellites/58296 · /tle

For live sub-satellite position, see the globe view (requires WebGL).

§ Visibility from observer

Set your observer location to see the next 7 days of passes ≥ 10°. The values pass through the URL so the page stays shareable.

No JS? Fill the form by hand. The geolocation button needs JavaScript.